Regional Weather Roundup
Issued by NWS

Home | Current Version | Previous Version | Text Only | Print | Product List | Glossary Off
Versions: 1 2 3 4 5 6 7 8 9 10 11 12 13 14 15 16 17 18 19 20 21 22 23 24 25 26 27 28 29 30 31 32 33 34 35 36 37 38 39 40 41 42 43 44 45 46 47 48 49 50

000
ASUS43 KMKX 051900
RWRWI

WISCONSIN REGIONAL WEATHER ROUNDUP
NATIONAL WEATHER SERVICE MILWAUKEE/SULLIVAN WI
200 PM CDT SUN JUL 05 2015

NOTE: "FAIR" INDICATES FEW OR NO CLOUDS BELOW 12,000 FEET WITH NO
SIGNIFICANT WEATHER AND/OR OBSTRUCTIONS TO VISIBILITY.

WIZ001-002-006>008-014>016-023>028-052000-
NORTHWEST WISCONSIN

CITY           SKY/WX    TMP DP  RH WIND       PRES   REMARKS
SUPERIOR ARPT  PTSUNNY   82  68  60 SW14G21   29.85F HX  85
ASHLAND        MOSUNNY   81  63  54 S15G24    29.90R HX  82
HAYWARD        MOSUNNY   82  61  48 SW20G26   29.93S HX  83
SIREN          CLOUDY    82  63  52 S13G20    29.90S HX  83
CUMBERLAND     PTSUNNY   77  63  61 S14       29.94R
RICE LAKE      PTSUNNY   80  62  54 S12G17    29.95S HX  81
CHETEK         PTSUNNY   80  65  59 MISG      29.94S HX  82
LADYSMITH      PTSUNNY   80  62  55 S10G18    29.97S HX  81
EAU CLAIRE     PTSUNNY   82  63  52 S14       29.93F HX  83
MENOMONIE      CLOUDY    81  64  57 S13G18    29.93F HX  82
NEW RICHMOND   PTSUNNY   80  65  60 S15G22    29.91S HX  82
OSCEOLA        MOSUNNY   82  67  58 S12G18    29.93R HX  85
$$

WIZ003>005-009-010-017-018-052000-
NORTH CENTRAL WISCONSIN

CITY           SKY/WX    TMP DP  RH WIND       PRES   REMARKS
MANITOWISH WTR MOSUNNY   78  62  56 S10G21    29.96F HX  80
ARBOR VITAE    MOSUNNY   80  60  51 SW12G21   29.98S HX  81
WOODRUFF       MOSUNNY   80  60  51 SW12G21   29.98S HX  81
RHINELANDER    SUNNY     80  57  45 SW10      29.99F HX  80
EAGLE RIVER    MOSUNNY   79  55  44 SW9G20    29.99R
LAND O LAKES   MOSUNNY   80  57  45 SW9G20    29.99S HX  80
PHILLIPS       PTSUNNY   78  61  55 SW12G17   29.96F
TOMAHAWK       MOSUNNY   78  61  55 S5        29.99F HX  80
MEDFORD        MOSUNNY   78  61  55 SW18      29.99F
MERRILL        MOSUNNY   79  62  55 SW10      30.00F HX  81
$$

WIZ029-030-035-036-043>047-052000-
CENTRAL WISCONSIN

CITY           SKY/WX    TMP DP  RH WIND       PRES   REMARKS
WAUSAU         SUNNY     81  59  47 S14       29.99F HX  81
MOSINEE        NOT AVBL
MARSHFIELD     MOSUNNY   81  61  50 S9G20     29.99F HX  82
STEVENS POINT  MOSUNNY   79  60  53 S13       30.01F HX  80
WAUPACA        SUNNY     83  60  44 S12       30.02S HX  83
WAUTOMA        NOT AVBL
WISC RAPIDS    SUNNY     82  59  45 SW14      30.02F HX  82
CAMP DOUGLAS   NOT AVBL
$$

WIZ011>013-019>022-031-037>040-048>050-052000-
NORTHEAST WISCONSIN

CITY           SKY/WX    TMP DP  RH WIND       PRES   REMARKS
ANTIGO         MOSUNNY   77  63  61 S13G18    30.03S
SHAWANO        MOSUNNY   82  61  48 S8        30.01F HX  83
OCONTO         MOSUNNY   81  63  54 S13       30.01S HX  82
STURGEON BAY   SUNNY     77  64  65 S16       30.05F
GREEN BAY      SUNNY     81  62  52 S13       30.02F HX  82
MANITOWOC      NOT AVBL
APPLETON       MOSUNNY   79  59  50 SW14      30.03F HX  80
CLINTONVILLE   MOSUNNY   81  59  47 S10G18    30.01F HX  81
OSHKOSH        SUNNY     81  61  50 S9        30.02F HX  82
$$

WIZ032>034-041-042-053>061-052000-
SOUTHWEST WISCONSIN

CITY           SKY/WX    TMP DP  RH WIND       PRES   REMARKS
LA CROSSE      PTSUNNY   83  63  50 S16       29.95F HX  84
SPARTA         MOSUNNY   84  58  41 S10       29.99F HX  83
VIROQUA        PTSUNNY   80  61  52 S8G16     30.02S HX  81
BOSCOBEL       PTSUNNY   84  65  52 S7        30.00F HX  86
PRAIRIE DU CHI PTSUNNY   82  62  49 S10       29.99F HX  83
PLATTEVILLE    PTSUNNY   80  64  58 S12       30.03F HX  82
$$

WIZ056-057-062-063-064-067-068-052000-
SOUTH CENTRAL WISCONSIN

CITY           SKY/WX    TMP DP  RH WIND       PRES   REMARKS
REEDSBURG      MOSUNNY   81  65  57 S9        30.02S HX  82
BARABOO/DELLS  MOSUNNY   81  61  50 S9        30.02F HX  82
LONE ROCK      NOT AVBL
MINERAL POINT  MOSUNNY   81  63  54 S8        30.04F HX  82
MADISON        MOSUNNY   81  62  52 S13       30.02F HX  82
MIDDLETON      PTSUNNY   83  61  47 SW10      30.04F HX  83
WATERTOWN      SUNNY     80  64  57 S7        30.04F HX  81
MONROE         MOSUNNY   79  63  57 S8        30.05F HX  80
JANESVILLE     MOSUNNY   82  61  47 S12       30.04F HX  83
$$

WIZ051-052-058>065-066-070>072-052000-
SOUTHEAST WISCONSIN

CITY           SKY/WX    TMP DP  RH WIND       PRES   REMARKS
MILWAUKEE      MOSUNNY   80  61  52 SE15      30.05F HX  81
WAUKESHA       MOSUNNY   79  61  53 S17       30.06F HX  80
MILWAUKEE/TIMM MOSUNNY   81  55  41 S8        30.06F HX  80
RACINE         SUNNY     79  59  50 SE14      30.08F HX  80
BURLINGTON     SUNNY     79  61  54 SW6       30.06F HX  80
KENOSHA        MOSUNNY   81  63  54 SE12      30.06F HX  82
FOND DU LAC    SUNNY     80  62  54 SW8       30.03F HX  81
SHEBOYGAN      SUNNY     77  63  61 SE12      30.04F
WEST BEND      PTSUNNY   79  59  50 S10       30.05F HX  80
JUNEAU         MOSUNNY   79  63  59 S12       30.06F HX  80
$$

LSZ147-162-052000-
LAKE SUPERIOR

STATION/POSITION TIME  TEMP    WIND        PRES    WAVE
                       AIR SEA DIR/SP/G            HT/PER
                 (UTC) (F)     (DEG/KT/KT) (MB)    (FT/S)
W MID LAKE BUOY  1750   50 40  120/  8/  8 1012.9F   0
DEVILS ISLAND    1800          180/ 12/ 15 1011.2F
SAXON HARBOR     1800   82     200/  5/ 12 1012.2S
$$

LMZ867-665-643>646-052000-
LAKE MICHIGAN

STATION/POSITION TIME  TEMP    WIND        PRES    WAVE
                       AIR SEA DIR/SP/G            HT/PER
                 (UTC) (F)     (DEG/KT/KT) (MB)    (FT/S)
CHAMBERS ISLAND  1800   77     200/  5/ 10 1016.6S
S GREEN BAY BUOY 1800   74 70  220/ 10/ 12 1018.2F
N MID LAKE BUOY  1750   54 49  200/ 12/ 12 1017.3S   2/ 4
NORTHPORT PIER   1800   69     140/  6/  9 1016.9R
ALGOMA LAKESHORE 1811          210/ 10/ 12   N/A
KEWAUNEE LAKESHO 1800   63     190/  8/ 11 1016.8F
SHEBOYGAN LAKESH 1800   63     160/ 13/ 13 1018.1F
PORT WASHINGTON  1800   69     140/  4/  5 1018.6F
ATWATER BUOY     1800   65 62  150/  4/  6 1019.5S
MILWAUKEE LAKESH 1800   66     130/ 11/ 15   N/A
KENOSHA   LAKESH 1800   68     160/  6/  9 1018.3R
$$

TC  - TEMPERATURE IN CELSIUS
VSB - VISIBILITY IN STATUTE MILES
WCI - WIND CHILL INDEX
HX  - HEAT INDEX



USA.gov is the U.S. government's official web portal to all federal, state and local government web resources and services.